owner,sensor,date,latitude,longitude,vertical_datum,wind_speed,wind_to_direction,wind_speed_of_gust,qcFlag 
DISL,ioos:station:DISL:CATA:1,2016-03-01T00:00:00Z,30.3085,-88.1395,0.0,2.76,209.5,-9999.0,'1111122,1111122,1111122' 
DISL,ioos:station:DISL:CATA:1,2016-03-01T00:30:00Z,30.3085,-88.1395,0.0,2.46,214.9,-9999.0,'1111122,1111122,1111122' 
DISL,ioos:station:DISL:CATA:1,2016-03-01T01:00:00Z,30.3085,-88.1395,0.0,2.88,207.5,-9999.0,'1111122,1111122,1111122' 
DISL,ioos:station:DISL:CATA:1,2016-03-01T01:30:00Z,30.3085,-88.1395,0.0,3.02,202.8,-9999.0,'1111122,1111122,1111122' 
DISL,ioos:station:DISL:CATA:1,2016-03-01T02:00:00Z,30.3085,-88.1395,0.0,3.61,203.3,-9999.0,'1111122,1111122,1111122' 
DISL,ioos:station:DISL:CATA:1,2016-03-01T02:30:00Z,30.3085,-88.1395,0.0,3.87,197.3,-9999.0,'1111122,1111122,1111122' 
DISL,ioos:station:DISL:CATA:1,2016-03-01T03:00:00Z,30.3085,-88.1395,0.0,4.64,205.7,-9999.0,'1111122,1111122,1111122' 
DISL,ioos:station:DISL:CATA:1,2016-03-01T03:30:00Z,30.3085,-88.1395,0.0,4.77,199.6,-9999.0,'1111122,1111122,1111122' 
DISL,ioos:station:DISL:CATA:1,2016-03-01T04:00:00Z,30.3085,-88.1395,0.0,4.42,192.3,-9999.0,'1111122,1111122,1111122' 
DISL,ioos:station:DISL:CATA:1,2016-03-01T04:30:00Z,30.3085,-88.1395,0.0,3.94,200.9,-9999.0,'1111122,1111122,1111122' 
DISL,ioos:station:DISL:CATA:1,2016-03-01T05:00:00Z,30.3085,-88.1395,0.0,3.65,199.7,-9999.0,'1111122,1111122,1111122' 
DISL,ioos:station:DISL:CATA:1,2016-03-01T05:30:00Z,30.3085,-88.1395,0.0,3.72,197.1,-9999.0,'1111122,1111122,1111122' 
DISL,ioos:station:DISL:CATA:1,2016-03-01T06:00:00Z,30.3085,-88.1395,0.0,4.2,198.8,-9999.0,'1111122,1111122,1111122' 
DISL,ioos:station:DISL:CATA:1,2016-03-01T06:30:00Z,30.3085,-88.1395,0.0,3.5,191.8,-9999.0,'1111122,1111122,1111122' 
DISL,ioos:station:DISL:CATA:1,2016-03-01T07:00:00Z,30.3085,-88.1395,0.0,3.43,190.0,-9999.0,'1111122,1111122,1111122' 
DISL,ioos:station:DISL:CATA:1,2016-03-01T07:30:00Z,30.3085,-88.1395,0.0,3.22,184.8,-9999.0,'1111122,1111122,1111122' 
DISL,ioos:station:DISL:CATA:1,2016-03-01T08:00:00Z,30.3085,-88.1395,0.0,3.31,193.1,-9999.0,'1111122,1111122,1111122' 
DISL,ioos:station:DISL:CATA:1,2016-03-01T08:30:00Z,30.3085,-88.1395,0.0,3.34,195.2,-9999.0,'1111122,1111122,1111122' 
DISL,ioos:station:DISL:CATA:1,2016-03-01T09:00:00Z,30.3085,-88.1395,0.0,3.67,184.6,-9999.0,'1111122,1111122,1111122' 
DISL,ioos:station:DISL:CATA:1,2016-03-01T09:30:00Z,30.3085,-88.1395,0.0,3.67,180.9,-9999.0,'1111122,1111122,1111122' 
DISL,ioos:station:DISL:CATA:1,2016-03-01T10:00:00Z,30.3085,-88.1395,0.0,4.21,181.4,-9999.0,'1111122,1111122,1111122' 
DISL,ioos:station:DISL:CATA:1,2016-03-01T10:30:00Z,30.3085,-88.1395,0.0,3.93,184.5,-9999.0,'1111122,1111122,1111122' 
DISL,ioos:station:DISL:CATA:1,2016-03-01T11:00:00Z,30.3085,-88.1395,0.0,4.26,175.9,-9999.0,'1111122,1111122,1111122' 
DISL,ioos:station:DISL:CATA:1,2016-03-01T11:30:00Z,30.3085,-88.1395,0.0,4.18,180.6,-9999.0,'1111122,1111122,1111122' 
DISL,ioos:station:DISL:CATA:1,2016-03-01T12:00:00Z,30.3085,-88.1395,0.0,3.76,181.0,-9999.0,'1111122,1111122,1111122' 
DISL,ioos:station:DISL:CATA:1,2016-03-01T12:30:00Z,30.3085,-88.1395,0.0,3.44,177.6,-9999.0,'1111122,1111122,1111122' 
DISL,ioos:station:DISL:CATA:1,2016-03-01T13:00:00Z,30.3085,-88.1395,0.0,3.88,173.4,-9999.0,'1111122,1111122,1111122' 
DISL,ioos:station:DISL:CATA:1,2016-03-01T13:30:00Z,30.3085,-88.1395,0.0,3.88,176.7,-9999.0,'1111122,1111122,1111122' 
DISL,ioos:station:DISL:CATA:1,2016-03-01T14:00:00Z,30.3085,-88.1395,0.0,3.8,175.4,-9999.0,'1111122,1111122,1111122' 
DISL,ioos:station:DISL:CATA:1,2016-03-01T14:30:00Z,30.3085,-88.1395,0.0,3.49,191.8,-9999.0,'1111122,1111122,1111122' 
DISL,ioos:station:DISL:CATA:1,2016-03-01T15:00:00Z,30.3085,-88.1395,0.0,3.43,192.3,-9999.0,'1111122,1111122,1111122' 
DISL,ioos:station:DISL:CATA:1,2016-03-01T15:30:00Z,30.3085,-88.1395,0.0,3.36,202.9,-9999.0,'1111122,1111122,1111122' 
DISL,ioos:station:DISL:CATA:1,2016-03-01T16:00:00Z,30.3085,-88.1395,0.0,2.93,204.6,-9999.0,'1111122,1111122,1111122' 
DISL,ioos:station:DISL:CATA:1,2016-03-01T16:30:00Z,30.3085,-88.1395,0.0,2.67,223.4,-9999.0,'1111122,1111122,1111122' 
DISL,ioos:station:DISL:CATA:1,2016-03-01T17:00:00Z,30.3085,-88.1395,0.0,1.68,245.8,-9999.0,'1111122,1111122,1111122' 
DISL,ioos:station:DISL:CATA:1,2016-03-01T17:30:00Z,30.3085,-88.1395,0.0,2.08,234.7,-9999.0,'1111122,1111122,1111122' 
DISL,ioos:station:DISL:CATA:1,2016-03-01T18:00:00Z,30.3085,-88.1395,0.0,2.34,244.9,-9999.0,'1111122,1111122,1111122' 
DISL,ioos:station:DISL:CATA:1,2016-03-01T18:30:00Z,30.3085,-88.1395,0.0,3.34,243.0,-9999.0,'1111122,1111122,1111122' 
DISL,ioos:station:DISL:CATA:1,2016-03-01T19:00:00Z,30.3085,-88.1395,0.0,3.11,251.6,-9999.0,'1111122,1111122,1111122' 
DISL,ioos:station:DISL:CATA:1,2016-03-01T19:30:00Z,30.3085,-88.1395,0.0,3.35,250.6,-9999.0,'1111122,1111122,1111122' 
DISL,ioos:station:DISL:CATA:1,2016-03-01T20:00:00Z,30.3085,-88.1395,0.0,5.06,231.8,-9999.0,'1111122,1111122,1111122' 
DISL,ioos:station:DISL:CATA:1,2016-03-01T20:30:00Z,30.3085,-88.1395,0.0,4.49,229.8,-9999.0,'1111122,1111122,1111122' 
DISL,ioos:station:DISL:CATA:1,2016-03-01T21:00:00Z,30.3085,-88.1395,0.0,5.17,222.2,-9999.0,'1111122,1111122,1111122' 
DISL,ioos:station:DISL:CATA:1,2016-03-01T21:30:00Z,30.3085,-88.1395,0.0,5.66,213.2,-9999.0,'1111122,1111122,1111122' 
DISL,ioos:station:DISL:CATA:1,2016-03-01T22:00:00Z,30.3085,-88.1395,0.0,6.11,203.7,-9999.0,'1111122,1111122,1111122' 
DISL,ioos:station:DISL:CATA:1,2016-03-01T22:30:00Z,30.3085,-88.1395,0.0,6.07,200.3,-9999.0,'1111122,1111122,1111122' 
DISL,ioos:station:DISL:CATA:1,2016-03-01T23:00:00Z,30.3085,-88.1395,0.0,6.09,202.7,-9999.0,'1111122,1111122,1111122' 
DISL,ioos:station:DISL:CATA:1,2016-03-01T23:30:00Z,30.3085,-88.1395,0.0,4.88,211.1,-9999.0,'1111122,1111122,1111122' 
DISL,ioos:station:DISL:CATA:1,2016-03-02T00:00:00Z,30.3085,-88.1395,0.0,4.93,217.7,-9999.0,'1111122,1111122,1111122' 
DISL,ioos:station:DISL:CATA:1,2016-03-02T00:30:00Z,30.3085,-88.1395,0.0,6.55,210.4,-9999.0,'1111122,1111122,1111122' 
DISL,ioos:station:DISL:CATA:1,2016-03-02T01:00:00Z,30.3085,-88.1395,0.0,7.22,215.2,-9999.0,'1111122,1111122,1111122' 
DISL,ioos:station:DISL:CATA:1,2016-03-02T01:30:00Z,30.3085,-88.1395,0.0,7.8,215.8,-9999.0,'1111122,1111122,1111122' 
DISL,ioos:station:DISL:CATA:1,2016-03-02T02:00:00Z,30.3085,-88.1395,0.0,8.6,220.6,-9999.0,'1111122,1111122,1111122' 
DISL,ioos:station:DISL:CATA:1,2016-03-02T02:30:00Z,30.3085,-88.1395,0.0,7.7,226.8,-9999.0,'1111122,1111122,1111122' 
DISL,ioos:station:DISL:CATA:1,2016-03-02T03:00:00Z,30.3085,-88.1395,0.0,7.25,232.4,-9999.0,'1111122,1111122,1111122' 
DISL,ioos:station:DISL:CATA:1,2016-03-02T03:30:00Z,30.3085,-88.1395,0.0,7.81,220.1,-9999.0,'1111122,1111122,1111122' 
DISL,ioos:station:DISL:CATA:1,2016-03-02T04:00:00Z,30.3085,-88.1395,0.0,7.87,239.3,-9999.0,'1111122,1111122,1111122' 
DISL,ioos:station:DISL:CATA:1,2016-03-02T04:30:00Z,30.3085,-88.1395,0.0,9.12,244.2,-9999.0,'1111122,1111122,1111122' 
DISL,ioos:station:DISL:CATA:1,2016-03-02T05:00:00Z,30.3085,-88.1395,0.0,10.06,267.1,-9999.0,'1111122,1111122,1111122' 
DISL,ioos:station:DISL:CATA:1,2016-03-02T05:30:00Z,30.3085,-88.1395,0.0,8.53,274.3,-9999.0,'1111122,1111122,1111122' 
DISL,ioos:station:DISL:CATA:1,2016-03-02T06:00:00Z,30.3085,-88.1395,0.0,7.58,285.2,-9999.0,'1111122,1111122,1111122' 
DISL,ioos:station:DISL:CATA:1,2016-03-02T06:30:00Z,30.3085,-88.1395,0.0,5.51,294.9,-9999.0,'1111122,1111122,1111122' 
DISL,ioos:station:DISL:CATA:1,2016-03-02T07:00:00Z,30.3085,-88.1395,0.0,7.1,317.8,-9999.0,'1111122,1111122,1111122' 
DISL,ioos:station:DISL:CATA:1,2016-03-02T07:30:00Z,30.3085,-88.1395,0.0,9.64,359.6,-9999.0,'1111122,1111122,1111122' 
DISL,ioos:station:DISL:CATA:1,2016-03-02T08:00:00Z,30.3085,-88.1395,0.0,7.5,8.15,-9999.0,'1111122,1111122,1111122' 
DISL,ioos:station:DISL:CATA:1,2016-03-02T08:30:00Z,30.3085,-88.1395,0.0,6.51,13.92,-9999.0,'1111122,1111122,1111122' 
DISL,ioos:station:DISL:CATA:1,2016-03-02T09:00:00Z,30.3085,-88.1395,0.0,6.24,6.189,-9999.0,'1111122,1111122,1111122' 
DISL,ioos:station:DISL:CATA:1,2016-03-02T09:30:00Z,30.3085,-88.1395,0.0,5.12,11.63,-9999.0,'1111122,1111122,1111122' 
DISL,ioos:station:DISL:CATA:1,2016-03-02T10:00:00Z,30.3085,-88.1395,0.0,6.49,16.12,-9999.0,'1111122,1111122,1111122' 
DISL,ioos:station:DISL:CATA:1,2016-03-02T10:30:00Z,30.3085,-88.1395,0.0,6.61,14.93,-9999.0,'1111122,1111122,1111122' 
DISL,ioos:station:DISL:CATA:1,2016-03-02T11:00:00Z,30.3085,-88.1395,0.0,6.83,16.07,-9999.0,'1111122,1111122,1111122' 
DISL,ioos:station:DISL:CATA:1,2016-03-02T11:30:00Z,30.3085,-88.1395,0.0,6.05,11.52,-9999.0,'1111122,1111122,1111122' 
DISL,ioos:station:DISL:CATA:1,2016-03-02T12:00:00Z,30.3085,-88.1395,0.0,5.65,11.09,-9999.0,'1111122,1111122,1111122' 
DISL,ioos:station:DISL:CATA:1,2016-03-02T12:30:00Z,30.3085,-88.1395,0.0,5.3,13.78,-9999.0,'1111122,1111122,1111122' 
DISL,ioos:station:DISL:CATA:1,2016-03-02T13:00:00Z,30.3085,-88.1395,0.0,4.23,10.22,-9999.0,'1111122,1111122,1111122' 
DISL,ioos:station:DISL:CATA:1,2016-03-02T13:30:00Z,30.3085,-88.1395,0.0,4.51,16.57,-9999.0,'1111122,1111122,1111122' 
DISL,ioos:station:DISL:CATA:1,2016-03-02T14:00:00Z,30.3085,-88.1395,0.0,5.59,33.3,-9999.0,'1111122,1111122,1111122' 
DISL,ioos:station:DISL:CATA:1,2016-03-02T14:30:00Z,30.3085,-88.1395,0.0,7.94,41.6,-9999.0,'1111122,1111122,1111122' 
DISL,ioos:station:DISL:CATA:1,2016-03-02T15:00:00Z,30.3085,-88.1395,0.0,7.19,37.85,-9999.0,'1111122,1111122,1111122' 
DISL,ioos:station:DISL:CATA:1,2016-03-02T15:30:00Z,30.3085,-88.1395,0.0,6.3,52.37,-9999.0,'1111122,1111122,1111122' 
DISL,ioos:station:DISL:CATA:1,2016-03-02T16:00:00Z,30.3085,-88.1395,0.0,5.77,49.85,-9999.0,'1111122,1111122,1111122' 
DISL,ioos:station:DISL:CATA:1,2016-03-02T16:30:00Z,30.3085,-88.1395,0.0,5.25,51.14,-9999.0,'1111122,1111122,1111122' 
DISL,ioos:station:DISL:CATA:1,2016-03-02T17:00:00Z,30.3085,-88.1395,0.0,5.07,56.7,-9999.0,'1111122,1111122,1111122' 
DISL,ioos:station:DISL:CATA:1,2016-03-02T17:30:00Z,30.3085,-88.1395,0.0,5.74,47.75,-9999.0,'1111122,1111122,1111122' 
DISL,ioos:station:DISL:CATA:1,2016-03-02T18:00:00Z,30.3085,-88.1395,0.0,5.93,47.28,-9999.0,'1111122,1111122,1111122' 
DISL,ioos:station:DISL:CATA:1,2016-03-02T18:30:00Z,30.3085,-88.1395,0.0,4.94,53.68,-9999.0,'1111122,1111122,1111122' 
DISL,ioos:station:DISL:CATA:1,2016-03-02T19:00:00Z,30.3085,-88.1395,0.0,4.35,56.77,-9999.0,'1111122,1111122,1111122' 
DISL,ioos:station:DISL:CATA:1,2016-03-02T19:30:00Z,30.3085,-88.1395,0.0,4.97,60.27,-9999.0,'1111122,1111122,1111122' 
DISL,ioos:station:DISL:CATA:1,2016-03-02T20:00:00Z,30.3085,-88.1395,0.0,4.88,58.51,-9999.0,'1111122,1111122,1111122' 
DISL,ioos:station:DISL:CATA:1,2016-03-02T20:30:00Z,30.3085,-88.1395,0.0,5.2,47.88,-9999.0,'1111122,1111122,1111122' 
DISL,ioos:station:DISL:CATA:1,2016-03-02T21:00:00Z,30.3085,-88.1395,0.0,5.08,47.96,-9999.0,'1111122,1111122,1111122' 
DISL,ioos:station:DISL:CATA:1,2016-03-02T21:30:00Z,30.3085,-88.1395,0.0,5.57,52.68,-9999.0,'1111122,1111122,1111122' 
DISL,ioos:station:DISL:CATA:1,2016-03-02T22:00:00Z,30.3085,-88.1395,0.0,5.68,48.11,-9999.0,'1111122,1111122,1111122' 
DISL,ioos:station:DISL:CATA:1,2016-03-02T22:30:00Z,30.3085,-88.1395,0.0,4.68,46.92,-9999.0,'1111122,1111122,1111122' 
DISL,ioos:station:DISL:CATA:1,2016-03-02T23:00:00Z,30.3085,-88.1395,0.0,3.87,39.66,-9999.0,'1111122,1111122,1111122' 
DISL,ioos:station:DISL:CATA:1,2016-03-02T23:30:00Z,30.3085,-88.1395,0.0,3.47,37.44,-9999.0,'1111122,1111122,1111122' 
DISL,ioos:station:DISL:CATA:1,2016-03-03T00:00:00Z,30.3085,-88.1395,0.0,4.39,42.3,-9999.0,'1111122,1111122,1111122' 
DISL,ioos:station:DISL:CATA:1,2016-03-03T00:30:00Z,30.3085,-88.1395,0.0,4.85,42.34,-9999.0,'1111122,1111122,1111122' 
DISL,ioos:station:DISL:CATA:1,2016-03-03T01:00:00Z,30.3085,-88.1395,0.0,4.33,36.05,-9999.0,'1111122,1111122,1111122' 
DISL,ioos:station:DISL:CATA:1,2016-03-03T01:30:00Z,30.3085,-88.1395,0.0,4.01,39.3,-9999.0,'1111122,1111122,1111122' 
DISL,ioos:station:DISL:CATA:1,2016-03-03T02:00:00Z,30.3085,-88.1395,0.0,3.84,49.85,-9999.0,'1111122,1111122,1111122' 
DISL,ioos:station:DISL:CATA:1,2016-03-03T02:30:00Z,30.3085,-88.1395,0.0,3.68,57.55,-9999.0,'1111122,1111122,1111122' 
DISL,ioos:station:DISL:CATA:1,2016-03-03T03:00:00Z,30.3085,-88.1395,0.0,3.44,75.33,-9999.0,'1111122,1111122,1111122' 
DISL,ioos:station:DISL:CATA:1,2016-03-03T03:30:00Z,30.3085,-88.1395,0.0,3.27,63.05,-9999.0,'1111122,1111122,1111122' 
DISL,ioos:station:DISL:CATA:1,2016-03-03T04:00:00Z,30.3085,-88.1395,0.0,3.52,89.0,-9999.0,'1111122,1111122,1111122' 
DISL,ioos:station:DISL:CATA:1,2016-03-03T04:30:00Z,30.3085,-88.1395,0.0,3.73,98.9,-9999.0,'1111122,1111122,1111122' 
DISL,ioos:station:DISL:CATA:1,2016-03-03T05:00:00Z,30.3085,-88.1395,0.0,3.46,107.2,-9999.0,'1111122,1111122,1111122' 
DISL,ioos:station:DISL:CATA:1,2016-03-03T05:30:00Z,30.3085,-88.1395,0.0,3.97,125.6,-9999.0,'1111122,1111122,1111122' 
DISL,ioos:station:DISL:CATA:1,2016-03-03T06:00:00Z,30.3085,-88.1395,0.0,4.03,135.7,-9999.0,'1111122,1111122,1111122' 
DISL,ioos:station:DISL:CATA:1,2016-03-03T06:30:00Z,30.3085,-88.1395,0.0,4.01,114.7,-9999.0,'1111122,1111122,1111122' 
DISL,ioos:station:DISL:CATA:1,2016-03-03T07:00:00Z,30.3085,-88.1395,0.0,3.61,99.6,-9999.0,'1111122,1111122,1111122' 
DISL,ioos:station:DISL:CATA:1,2016-03-03T07:30:00Z,30.3085,-88.1395,0.0,3.54,99.1,-9999.0,'1111122,1111122,1111122' 
DISL,ioos:station:DISL:CATA:1,2016-03-03T08:00:00Z,30.3085,-88.1395,0.0,3.27,101.0,-9999.0,'1111122,1111122,1111122' 
DISL,ioos:station:DISL:CATA:1,2016-03-03T08:30:00Z,30.3085,-88.1395,0.0,4.33,104.6,-9999.0,'1111122,1111122,1111122' 
DISL,ioos:station:DISL:CATA:1,2016-03-03T09:00:00Z,30.3085,-88.1395,0.0,4.41,103.7,-9999.0,'1111122,1111122,1111122' 
DISL,ioos:station:DISL:CATA:1,2016-03-03T09:30:00Z,30.3085,-88.1395,0.0,4.58,109.3,-9999.0,'1111122,1111122,1111122' 
DISL,ioos:station:DISL:CATA:1,2016-03-03T10:00:00Z,30.3085,-88.1395,0.0,4.26,143.1,-9999.0,'1111122,1111122,1111122' 
DISL,ioos:station:DISL:CATA:1,2016-03-03T10:30:00Z,30.3085,-88.1395,0.0,4.36,151.8,-9999.0,'1111122,1111122,1111122' 
DISL,ioos:station:DISL:CATA:1,2016-03-03T11:00:00Z,30.3085,-88.1395,0.0,4.33,155.9,-9999.0,'1111122,1111122,1111122' 
DISL,ioos:station:DISL:CATA:1,2016-03-03T11:30:00Z,30.3085,-88.1395,0.0,3.71,143.7,-9999.0,'1111122,1111122,1111122' 
DISL,ioos:station:DISL:CATA:1,2016-03-03T12:00:00Z,30.3085,-88.1395,0.0,3.03,155.1,-9999.0,'1111122,1111122,1111122' 
DISL,ioos:station:DISL:CATA:1,2016-03-03T12:30:00Z,30.3085,-88.1395,0.0,2.86,144.9,-9999.0,'1111122,1111122,1111122' 
DISL,ioos:station:DISL:CATA:1,2016-03-03T13:00:00Z,30.3085,-88.1395,0.0,4.35,155.4,-9999.0,'1111122,1111122,1111122' 
DISL,ioos:station:DISL:CATA:1,2016-03-03T13:30:00Z,30.3085,-88.1395,0.0,4.59,152.2,-9999.0,'1111122,1111122,1111122' 
DISL,ioos:station:DISL:CATA:1,2016-03-03T14:00:00Z,30.3085,-88.1395,0.0,5.41,158.3,-9999.0,'1111122,1111122,1111122' 
DISL,ioos:station:DISL:CATA:1,2016-03-03T14:30:00Z,30.3085,-88.1395,0.0,5.69,160.9,-9999.0,'1111122,1111122,1111122' 
DISL,ioos:station:DISL:CATA:1,2016-03-03T15:00:00Z,30.3085,-88.1395,0.0,2.54,155.5,-9999.0,'1111122,1111122,1111122' 
DISL,ioos:station:DISL:CATA:1,2016-03-03T15:30:00Z,30.3085,-88.1395,0.0,2.28,248.6,-9999.0,'1111122,1111122,1111122' 
DISL,ioos:station:DISL:CATA:1,2016-03-03T16:00:00Z,30.3085,-88.1395,0.0,2.82,342.9,-9999.0,'1111122,1111122,1111122' 
DISL,ioos:station:DISL:CATA:1,2016-03-03T16:30:00Z,30.3085,-88.1395,0.0,1.57,90.5,-9999.0,'1111122,1111122,1111122' 
DISL,ioos:station:DISL:CATA:1,2016-03-03T17:00:00Z,30.3085,-88.1395,0.0,2.84,140.4,-9999.0,'1111122,1111122,1111122' 
DISL,ioos:station:DISL:CATA:1,2016-03-03T17:30:00Z,30.3085,-88.1395,0.0,4.19,157.6,-9999.0,'1111122,1111122,1111122' 
DISL,ioos:station:DISL:CATA:1,2016-03-03T18:00:00Z,30.3085,-88.1395,0.0,4.67,178.5,-9999.0,'1111122,1111122,1111122' 
DISL,ioos:station:DISL:CATA:1,2016-03-03T18:30:00Z,30.3085,-88.1395,0.0,5.56,173.4,-9999.0,'1111122,1111122,1111122' 
DISL,ioos:station:DISL:CATA:1,2016-03-03T19:00:00Z,30.3085,-88.1395,0.0,5.83,172.5,-9999.0,'1111122,1111122,1111122' 
DISL,ioos:station:DISL:CATA:1,2016-03-03T19:30:00Z,30.3085,-88.1395,0.0,6.87,170.1,-9999.0,'1111122,1111122,1111122' 
DISL,ioos:station:DISL:CATA:1,2016-03-03T20:00:00Z,30.3085,-88.1395,0.0,8.13,181.8,-9999.0,'1111122,1111122,1111122' 
DISL,ioos:station:DISL:CATA:1,2016-03-03T20:30:00Z,30.3085,-88.1395,0.0,7.96,189.1,-9999.0,'1111122,1111122,1111122' 
DISL,ioos:station:DISL:CATA:1,2016-03-03T21:00:00Z,30.3085,-88.1395,0.0,7.91,193.2,-9999.0,'1111122,1111122,1111122' 
DISL,ioos:station:DISL:CATA:1,2016-03-03T21:30:00Z,30.3085,-88.1395,0.0,8.76,194.9,-9999.0,'1111122,1111122,1111122' 
DISL,ioos:station:DISL:CATA:1,2016-03-03T22:00:00Z,30.3085,-88.1395,0.0,9.93,203.3,-9999.0,'1111122,1111122,1111122' 
DISL,ioos:station:DISL:CATA:1,2016-03-03T22:30:00Z,30.3085,-88.1395,0.0,10.07,213.3,-9999.0,'1111122,1111122,1111122' 
DISL,ioos:station:DISL:CATA:1,2016-03-03T23:00:00Z,30.3085,-88.1395,0.0,10.9,217.6,-9999.0,'1111122,1111122,1111122' 
DISL,ioos:station:DISL:CATA:1,2016-03-03T23:30:00Z,30.3085,-88.1395,0.0,11.27,225.7,-9999.0,'1111122,1111122,1111122' 
DISL,ioos:station:DISL:CATA:1,2016-03-04T00:00:00Z,30.3085,-88.1395,0.0,11.54,231.3,-9999.0,'1111122,1111122,1111122' 
DISL,ioos:station:DISL:CATA:1,2016-03-04T00:30:00Z,30.3085,-88.1395,0.0,11.83,237.4,-9999.0,'1111122,1111122,1111122' 
DISL,ioos:station:DISL:CATA:1,2016-03-04T01:00:00Z,30.3085,-88.1395,0.0,12.05,244.8,-9999.0,'1111122,1111122,1111122' 
DISL,ioos:station:DISL:CATA:1,2016-03-04T01:30:00Z,30.3085,-88.1395,0.0,9.74,264.0,-9999.0,'1111122,1111122,1111122' 
DISL,ioos:station:DISL:CATA:1,2016-03-04T02:00:00Z,30.3085,-88.1395,0.0,7.54,277.7,-9999.0,'1111122,1111122,1111122' 
DISL,ioos:station:DISL:CATA:1,2016-03-04T02:30:00Z,30.3085,-88.1395,0.0,6.07,297.7,-9999.0,'1111122,1111122,1111122' 
DISL,ioos:station:DISL:CATA:1,2016-03-04T03:00:00Z,30.3085,-88.1395,0.0,8.31,337.3,-9999.0,'1111122,1111122,1111122' 
DISL,ioos:station:DISL:CATA:1,2016-03-04T03:30:00Z,30.3085,-88.1395,0.0,4.41,28.52,-9999.0,'1111122,1111122,1111122' 
DISL,ioos:station:DISL:CATA:1,2016-03-04T04:00:00Z,30.3085,-88.1395,0.0,4.42,24.88,-9999.0,'1111122,1111122,1111122' 
DISL,ioos:station:DISL:CATA:1,2016-03-04T04:30:00Z,30.3085,-88.1395,0.0,5.66,3.073,-9999.0,'1111122,1111122,1111122' 
DISL,ioos:station:DISL:CATA:1,2016-03-04T05:00:00Z,30.3085,-88.1395,0.0,4.91,12.93,-9999.0,'1111122,1111122,1111122' 
DISL,ioos:station:DISL:CATA:1,2016-03-04T05:30:00Z,30.3085,-88.1395,0.0,7.08,0.476,-9999.0,'1111122,1111122,1111122' 
DISL,ioos:station:DISL:CATA:1,2016-03-04T06:00:00Z,30.3085,-88.1395,0.0,5.19,1.284,-9999.0,'1111122,1111122,1111122' 
DISL,ioos:station:DISL:CATA:1,2016-03-04T06:30:00Z,30.3085,-88.1395,0.0,4.4,9.34,-9999.0,'1111122,1111122,1111122' 
DISL,ioos:station:DISL:CATA:1,2016-03-04T07:00:00Z,30.3085,-88.1395,0.0,3.56,356.8,-9999.0,'1111122,1111122,1111122' 
DISL,ioos:station:DISL:CATA:1,2016-03-04T07:30:00Z,30.3085,-88.1395,0.0,3.88,356.1,-9999.0,'1111122,1111122,1111122' 
DISL,ioos:station:DISL:CATA:1,2016-03-04T08:00:00Z,30.3085,-88.1395,0.0,3.18,8.18,-9999.0,'1111122,1111122,1111122' 
DISL,ioos:station:DISL:CATA:1,2016-03-04T08:30:00Z,30.3085,-88.1395,0.0,4.02,9.67,-9999.0,'1111122,1111122,1111122' 
DISL,ioos:station:DISL:CATA:1,2016-03-04T09:00:00Z,30.3085,-88.1395,0.0,4.24,2.681,-9999.0,'1111122,1111122,1111122' 
DISL,ioos:station:DISL:CATA:1,2016-03-04T09:30:00Z,30.3085,-88.1395,0.0,4.66,356.0,-9999.0,'1111122,1111122,1111122' 
DISL,ioos:station:DISL:CATA:1,2016-03-04T10:00:00Z,30.3085,-88.1395,0.0,4.52,359.0,-9999.0,'1111122,1111122,1111122' 
DISL,ioos:station:DISL:CATA:1,2016-03-04T10:30:00Z,30.3085,-88.1395,0.0,4.0,353.5,-9999.0,'1111122,1111122,1111122' 
DISL,ioos:station:DISL:CATA:1,2016-03-04T11:00:00Z,30.3085,-88.1395,0.0,3.15,4.854,-9999.0,'1111122,1111122,1111122' 
DISL,ioos:station:DISL:CATA:1,2016-03-04T11:30:00Z,30.3085,-88.1395,0.0,3.33,0.051,-9999.0,'1111122,1111122,1111122' 
DISL,ioos:station:DISL:CATA:1,2016-03-04T12:00:00Z,30.3085,-88.1395,0.0,4.03,0.114,-9999.0,'1111122,1111122,1111122' 
DISL,ioos:station:DISL:CATA:1,2016-03-04T12:30:00Z,30.3085,-88.1395,0.0,3.5,9.6,-9999.0,'1111122,1111122,1111122' 
DISL,ioos:station:DISL:CATA:1,2016-03-04T13:00:00Z,30.3085,-88.1395,0.0,3.92,5.847,-9999.0,'1111122,1111122,1111122' 
DISL,ioos:station:DISL:CATA:1,2016-03-04T13:30:00Z,30.3085,-88.1395,0.0,4.23,0.559,-9999.0,'1111122,1111122,1111122' 
DISL,ioos:station:DISL:CATA:1,2016-03-04T14:00:00Z,30.3085,-88.1395,0.0,5.69,17.09,-9999.0,'1111122,1111122,1111122' 
DISL,ioos:station:DISL:CATA:1,2016-03-04T14:30:00Z,30.3085,-88.1395,0.0,5.19,11.51,-9999.0,'1111122,1111122,1111122' 
DISL,ioos:station:DISL:CATA:1,2016-03-04T15:00:00Z,30.3085,-88.1395,0.0,6.34,15.71,-9999.0,'1111122,1111122,1111122' 
DISL,ioos:station:DISL:CATA:1,2016-03-04T15:30:00Z,30.3085,-88.1395,0.0,6.16,17.49,-9999.0,'1111122,1111122,1111122' 
DISL,ioos:station:DISL:CATA:1,2016-03-04T16:00:00Z,30.3085,-88.1395,0.0,5.5,43.06,-9999.0,'1111122,1111122,1111122' 
DISL,ioos:station:DISL:CATA:1,2016-03-04T16:30:00Z,30.3085,-88.1395,0.0,5.74,41.54,-9999.0,'1111122,1111122,1111122' 
DISL,ioos:station:DISL:CATA:1,2016-03-04T17:00:00Z,30.3085,-88.1395,0.0,5.98,42.86,-9999.0,'1111122,1111122,1111122' 
DISL,ioos:station:DISL:CATA:1,2016-03-04T17:30:00Z,30.3085,-88.1395,0.0,5.98,42.72,-9999.0,'1111122,1111122,1111122' 
DISL,ioos:station:DISL:CATA:1,2016-03-04T18:00:00Z,30.3085,-88.1395,0.0,5.54,49.47,-9999.0,'1111122,1111122,1111122' 
DISL,ioos:station:DISL:CATA:1,2016-03-04T18:30:00Z,30.3085,-88.1395,0.0,5.2,54.6,-9999.0,'1111122,1111122,1111122' 
DISL,ioos:station:DISL:CATA:1,2016-03-04T19:00:00Z,30.3085,-88.1395,0.0,5.79,51.12,-9999.0,'1111122,1111122,1111122' 
DISL,ioos:station:DISL:CATA:1,2016-03-04T19:30:00Z,30.3085,-88.1395,0.0,6.0,56.33,-9999.0,'1111122,1111122,1111122' 
DISL,ioos:station:DISL:CATA:1,2016-03-04T20:00:00Z,30.3085,-88.1395,0.0,6.11,48.27,-9999.0,'1111122,1111122,1111122' 
DISL,ioos:station:DISL:CATA:1,2016-03-04T20:30:00Z,30.3085,-88.1395,0.0,6.25,48.64,-9999.0,'1111122,1111122,1111122' 
DISL,ioos:station:DISL:CATA:1,2016-03-04T21:00:00Z,30.3085,-88.1395,0.0,6.01,54.98,-9999.0,'1111122,1111122,1111122' 
DISL,ioos:station:DISL:CATA:1,2016-03-04T21:30:00Z,30.3085,-88.1395,0.0,5.91,50.84,-9999.0,'1111122,1111122,1111122' 
DISL,ioos:station:DISL:CATA:1,2016-03-04T22:00:00Z,30.3085,-88.1395,0.0,4.24,48.11,-9999.0,'1111122,1111122,1111122' 
DISL,ioos:station:DISL:CATA:1,2016-03-04T22:30:00Z,30.3085,-88.1395,0.0,3.91,36.83,-9999.0,'1111122,1111122,1111122' 
DISL,ioos:station:DISL:CATA:1,2016-03-04T23:00:00Z,30.3085,-88.1395,0.0,3.9,48.04,-9999.0,'1111122,1111122,1111122' 
DISL,ioos:station:DISL:CATA:1,2016-03-04T23:30:00Z,30.3085,-88.1395,0.0,2.98,45.18,-9999.0,'1111122,1111122,1111122' 
DISL,ioos:station:DISL:CATA:1,2016-03-05T00:00:00Z,30.3085,-88.1395,0.0,1.55,29.79,-9999.0,'1111122,1111122,1111122' 
DISL,ioos:station:DISL:CATA:1,2016-03-05T00:30:00Z,30.3085,-88.1395,0.0,2.05,340.8,-9999.0,'1111122,1111122,1111122' 
DISL,ioos:station:DISL:CATA:1,2016-03-05T01:00:00Z,30.3085,-88.1395,0.0,3.66,293.6,-9999.0,'1111122,1111122,1111122' 
DISL,ioos:station:DISL:CATA:1,2016-03-05T01:30:00Z,30.3085,-88.1395,0.0,3.58,293.9,-9999.0,'1111122,1111122,1111122' 
DISL,ioos:station:DISL:CATA:1,2016-03-05T02:00:00Z,30.3085,-88.1395,0.0,2.69,293.4,-9999.0,'1111122,1111122,1111122' 
DISL,ioos:station:DISL:CATA:1,2016-03-05T02:30:00Z,30.3085,-88.1395,0.0,2.39,313.9,-9999.0,'1111122,1111122,1111122' 
DISL,ioos:station:DISL:CATA:1,2016-03-05T03:00:00Z,30.3085,-88.1395,0.0,2.36,329.9,-9999.0,'1111122,1111122,1111122' 
DISL,ioos:station:DISL:CATA:1,2016-03-05T03:30:00Z,30.3085,-88.1395,0.0,2.43,346.1,-9999.0,'1111122,1111122,1111122' 
DISL,ioos:station:DISL:CATA:1,2016-03-05T04:00:00Z,30.3085,-88.1395,0.0,2.01,346.7,-9999.0,'1111122,1111122,1111122' 
DISL,ioos:station:DISL:CATA:1,2016-03-05T04:30:00Z,30.3085,-88.1395,0.0,1.81,2.927,-9999.0,'1111122,1111122,1111122' 